Regional Weather Roundup
Issued by NWS

Home | Current Version | Previous Version | Text Only | Print | Product List | Glossary Off
Versions: 1 2 3 4 5 6 7 8 9 10 11 12 13 14 15 16 17 18 19 20 21 22 23 24 25 26 27 28 29 30 31 32 33 34 35 36 37 38 39 40 41 42 43 44 45 46 47 48 49 50

079
ASUS43 KLSX 200807
RWRMO

WEATHER SUMMARY FOR MISSOURI
NATIONAL WEATHER SERVICE SPRINGFIELD MO
200 AM CST FRI JAN 20 2017

NOTE: "FAIR" INDICATES FEW OR NO CLOUDS BELOW 12,000 FEET WITH NO
       SIGNIFICANT WEATHER AND/OR OBSTRUCTIONS TO VISIBILITY.
       CURRENT SKY AND/OR WEATHER CONDITIONS ARE NOT AVAILABLE FOR
       CHILLICOTHE AND FARMINGTON.

MOZ001>031-035>038-043-044-053-054-200900-
...NORTHERN AND WESTERN MISSOURI...

CITY           SKY/WX    TMP DP  RH WIND       PRES   REMARKS
KANSAS CTY INT CLOUDY    45  43  93 E3        29.60S FOG
KANSAS C DTWN  CLOUDY    47  46  97 NE6       29.59F FOG
LEE`S SUMMIT   FOG       45  45 100 E6        29.60F VSB 1/2
ST JOSEPH      CLOUDY    42  42 100 CALM      29.61S FOG
CHILLICOTHE      N/A     44  43  96 CALM      29.63S
KIRKSVILLE     FOG       40  40 100 CALM      29.62S VSB 1/4

$$
MOZ066>068-077>081-088>096-101>105-200900-
...SOUTHWEST MISSOURI...

CITY           SKY/WX    TMP DP  RH WIND       PRES   REMARKS
SPRINGFIELD    CLOUDY    47  46  97 SE5       29.61S FOG
JOPLIN         CLOUDY    50  48  93 SE3       29.60F
BRANSON        FOG       37  37 100 CALM      29.63S VSB<1/4

$$
MOZ032>034-039>042-045>050-055>058-069>072-200900-
...CENTRAL MISSOURI...

CITY           SKY/WX    TMP DP  RH WIND       PRES   REMARKS
COLUMBIA       FOG       45  45 100 CALM      29.60F VSB 1/4
JEFFERSON CITY FOG       46  46 100 CALM      29.61F VSB 3/4
ROLLA          CLOUDY    48  48 100 S7        29.60S
SEDALIA        FOG       47  47 100 CALM      29.63R VSB 1/2
WHITEMAN AFB   FOG       46  46 100 SW3       29.61R VSB 3/4
WARRENSBURG    FOG       45  45 100 E3        29.62R VSB 1/4
OSAGE BEACH    LGT RAIN  49  48  97 CALM      29.63R VSB 1/4

$$
MOZ051-052-059>065-200900-
...EAST CENTRAL MISSOURI...

CITY           SKY/WX    TMP DP  RH WIND       PRES   REMARKS
ST LOUIS INTL  FOG       47  45  93 CALM      29.62R VSB 1/4
SPIRIT OF STL  CLOUDY    46  46 100 SW3       29.64R FOG
ST CHARLES     FOG       44  44 100 CALM      29.62R VSB 1/4

$$
MOZ072>076-082>087-097>100-106>115-200900-
...SOUTH CENTRAL AND SOUTHEAST MISSOURI...

CITY           SKY/WX    TMP DP  RH WIND       PRES   REMARKS
CAPE GIRARDEAU CLOUDY    52  50  93 SW15      29.66R
FARMINGTON     CLOUDY    49  48  97 SW7       29.64R
POPLAR BLUFF   CLOUDY    50  50 100 SW10      29.67R FOG
WEST PLAINS    CLOUDY    49  48  97 SW7       29.66R

$$



USA.gov is the U.S. government's official web portal to all federal, state and local government web resources and services.